Orbital Elements at Epoch 2459200.5 (2020-Dec-17.0) TDB
Reference: JPL 14 (heliocentric ecliptic J2000)
Element | Value | Uncertainty (1-sigma) | Units |
e | .09856784640736511 | 6.4286e-08 | |
a | 2.775472169139722 | 2.7707e-08 | au |
q | 2.501899854664042 | 1.7125e-07 | au |
i | 2.806927316112509 | 5.7318e-06 | deg |
node | 230.3267040576526 | 0.0001747 | deg |
peri | 172.4027882287915 | 0.00018034 | deg |
M | 149.3105084172424 | 4.3699e-05 | deg |
tp | 2458500.026652042352 (2019-Jan-16.52665204) | 0.00020505 | TDB |
period | 1688.899247198817 4.62 | 2.529e-05 6.924e-08 | d yr |
n | .2131565874027659 | 3.1919e-09 | deg/d |
Q | 3.049044483615403 | 3.0438e-08 | au |
|
| | Orbit Determination Parameters
Additional Information
|